Location: Penum?ka
(16.4840°N, 80.5772°E)
Time: 19:00:09
(UTC+00:00)

Daily predictions for brighter satellites

Satellite Brightness Start Highest point End
(mag) Time Altitude Azimuth Time Altitude Azimuth Time Altitude Azimuth
SPOT 1/Viking Rocket 3.7 13:20:44 10° SSE 13:25:46 54° ENE 13:30:46 10° N
Resurs 1-3 3.8 13:25:58 10° SSE 13:30:06 48° ENE 13:34:14 10° N
Cosmos 2369 Rocket 2.9 13:25:53 10° N 13:31:02 35° ENE 13:36:08 10° SE
Cosmos 1745 Rocket 4.4 13:26:03 10° NNE 13:31:57 42° E 13:37:52 10° SSE
Cosmos 1833 Rocket 4.4 13:31:17 10° ESE 13:32:15 10° E 13:33:12 10° E
Meteor 1-27 4.3 13:28:15 10° S 13:33:50 88° W 13:39:23 10° N
Ariane H10 3.3 13:35:04 10° SSW 13:36:14 12° S 13:37:26 10° SSE
Palapa 6 Rocket 3.0 13:33:46 10° SW 13:37:20 45° SSE 13:41:11 10° E
Cosmos 374 Rocket 4.5 13:36:47 10° SSW 13:40:50 76° WNW 13:44:41 10° NNE
ARIANE 6 FM1 Upper Stage 2.4 13:44:39 10° SSW 13:48:41 74° ESE 13:52:40 10° NNE
GMS 1 Rocket B 4.2 13:46:45 10° SW 13:50:39 62° SSE 13:54:40 10° ENE
ASC 2 Rocket 3.9 13:46:38 10° SW 13:50:43 37° SSE 13:55:23 13° E
Cosmos 1709 Rocket 4.4 13:45:55 10° NNE 13:51:56 44° E 13:57:55 10° SSE
NOAA 6 4.3 13:47:05 10° S 13:52:08 68° WSW 13:57:11 10° NNW
Meteor 2-3 Rocket 4.0 13:50:09 10° N 13:55:56 77° W 14:01:43 10° S
Ariane H10+ 4.4 13:38:29 10° W 13:56:56 52° SSW 14:04:30 18° ESE
Meteor 1-31 Rocket 2.9 13:53:59 10° S 13:57:28 65° W 14:00:58 10° NNW
Cosmos 1782 3.7 13:58:28 22° ESE 13:59:19 24° E 14:02:19 10° NE
USA 234 3.5 13:53:22 10° NNE 13:59:53 76° NW 14:06:24 10° SW
CZ-4 R/B 2.6 13:59:45 20° E 14:00:46 23° ENE 14:03:53 10° NNE
ATLAS 2A CENTAUR R/B 4.1 13:36:16 10° WSW 14:05:20 85° SSE 14:10:49 11° ENE
SL-08 R/B 3.4 14:05:15 10° N 14:10:03 83° WNW 14:14:46 10° SSW
ATLAS 2A CENTAUR R/B 1.5 14:10:03 10° WNW 14:11:44 43° NNW 14:11:44 43° NNW
Cosmos 724 4.3 14:07:33 10° NNW 14:13:46 81° ENE 14:18:09 20° SSE
SJ-6B 2.6 14:11:07 16° S 14:13:56 79° W 14:17:36 10° NNW
Cosmos 1758 Rocket 3.6 14:10:30 10° N 14:14:40 52° E 14:16:35 29° SSE
CZ-4B R/B 4.5 14:14:47 21° E 14:15:41 22° ENE 14:19:49 10° NNE
Resurs 01 Rocket 1.5 14:13:18 22° SSE 14:16:03 66° ENE 14:20:22 10° N
CZ-2C R/B 2.3 14:16:37 45° SE 14:17:19 58° ENE 14:20:34 10° N
DELTA 2 R/B(2) 4.0 14:18:12 10° NW 14:19:48 55° WNW 14:19:48 55° WNW
ATLAS 5 CENTAUR R/B 2.5 14:16:08 10° NNW 14:21:52 77° WSW 14:26:52 19° SSE
GPS 2-15 Rocket1 2.9 14:18:50 10° WNW 14:23:24 85° NNE 14:25:02 40° E
USA 186 4.2 14:26:24 10° NNE 14:26:24 10° NNE 14:26:25 10° NNE
USA 308 2.4 14:20:33 10° SSW 14:24:35 85° SE 14:27:27 15° NE
Cosmos 1606 Rocket 3.4 14:22:03 13° S 14:26:01 82° E 14:30:26 10° N
Cosmos 1602 Rocket 3.7 14:22:05 10° N 14:26:13 47° E 14:26:42 45° ESE
Cosmos 2297 4.4 14:21:08 10° NNW 14:26:37 53° WSW 14:31:45 12° S
CSL-04 Rocket 4.1 14:26:44 35° ESE 14:28:10 41° ENE 14:33:10 10° N
Cosmos 1607 4.1 14:23:24 10° NNW 14:29:29 70° WSW 14:33:35 22° S
ATLAS CENTAUR R/B 2.3 14:28:14 10° SW 14:31:28 39° WNW 14:34:52 10° N
ADEOS 3.6 14:30:22 39° SE 14:32:02 56° ENE 14:37:06 10° N
Nadezhda 1 Rocket 4.4 14:32:32 35° ESE 14:33:03 36° E 14:38:29 10° NNE
Helios 1A 4.3 14:30:13 10° NNE 14:32:10 24° NE 14:32:10 24° NE
Cosmos 2151 4.3 14:30:25 10° NNE 14:32:43 24° NE 14:32:43 24° NE
Atlas Centaur 2 2.9 14:27:48 10° NW 14:34:15 63° NNE 14:37:47 33° E
CZ-3 Stage 3 3.6 14:14:54 10° WNW 14:35:49 50° SW 14:39:22 27° SSE
GPS 2-17 Rocket1 3.2 14:33:18 10° WSW 14:37:12 49° S 14:37:12 49° S
Intercosmos 24 Rocket 4.3 14:33:59 10° N 14:37:35 65° E 14:37:41 65° E
CSL-04 Debris 4.3 14:36:42 44° ESE 14:38:00 54° ENE 14:43:18 10° N
Cosmos 1400 Rocket 4.4 14:45:12 22° NNE 14:45:12 22° NNE 14:46:38 10° NNE
SPOT 5 4.0 14:47:57 26° NE 14:47:57 26° NE 14:50:24 10° NNE
Cosmos 1898 Rocket 3.4 14:41:37 10° NNW 14:46:47 89° WSW 14:48:05 52° S
CRYOSAT 2 4.2 14:51:53 70° SSE 14:52:28 86° E 14:57:21 10° N
NOSS 3-1 (C) 2.9 14:48:25 10° SSW 14:52:48 67° WNW 14:57:24 10° NNE
Aureole 1 Rocket 4.4 14:48:14 10° NNW 14:54:24 66° WSW 14:58:30 27° S
Cosmos 2184 Rocket 4.4 14:50:26 10° NNE 14:55:55 43° ENE 14:55:55 43° ENE
Feng Yun 1-1 Rocket 4.1 14:55:59 65° ESE 14:56:25 69° ENE 15:02:01 10° N
Okean O Rocket 3.6 15:05:34 19° NNE 15:05:34 19° NNE 15:07:03 10° N
Cosmos 1833 Rocket 3.3 15:10:08 10° SSW 15:15:37 55° WNW 15:21:07 10° N
Centaur AC-146 2.8 15:13:07 10° W 15:16:18 72° N 15:16:24 72° NNE
CZ-4 R/B 4.2 15:34:57 13° W 15:34:57 13° W 15:36:45 10° WNW
Terra 4.3 15:54:08 17° N 15:54:08 17° N 15:55:09 10° N
CZ-4C R/B 3.6 16:10:48 10° NNW 16:17:13 59° NNW 16:17:13 59° NNW
Atlas Centaur 2 4.2 16:16:21 10° WNW 16:19:47 29° W 16:19:47 29° W
Milstar 3 Cent rocket 4.2 16:46:23 10° WNW 17:00:33 60° WNW 17:00:33 60° WNW
Milstar 3 4.1 20:40:28 51° NNW 20:40:58 51° NNW 20:48:42 10° ENE
Cosmos 2227 Rocket 4.4 21:26:36 15° NNW 21:26:36 15° NNW 21:27:47 10° NNW
H-2A R/B 3.4 21:23:45 10° NE 21:28:34 34° E 21:28:34 34° E
Cosmos 2082 4.3 21:42:23 51° N 21:42:23 51° N 21:46:35 10° NNE
Tsikada Rocket 4.4 21:45:27 49° NNW 21:45:27 49° NNW 21:50:01 10° N
Cosmos 1844 Rocket 4.3 21:50:35 22° SE 21:52:51 29° ESE 21:57:36 10° NE
SPELTRA 4.4 21:57:53 32° SSE 21:57:53 32° SSE 22:05:31 10° ESE
CZ-2C R/B 3.0 21:54:31 10° NNE 21:58:53 46° E 21:59:12 45° ESE
Hubble Space Telescope 2.5 22:03:50 26° N 22:03:50 26° N 22:06:14 10° NE
Cosmos 1634 Rocket 4.3 22:00:46 10° N 22:07:01 65° E 22:13:07 10° SSE
SWIFT 4.0 22:09:45 22° ESE 22:09:45 22° ESE 22:11:21 10° E
COSMOS 2455 4.5 22:05:10 10° N 22:10:32 33° ENE 22:15:53 10° SE
Cosmos 1992 Rocket 4.1 22:06:02 10° NNW 22:10:18 58° NW 22:10:18 58° NW
ADEOS II 4.4 22:11:25 10° NW 22:11:41 11° NW 22:11:41 11° NW
Cosmos 2263 Rocket 3.9 22:17:04 18° NW 22:17:04 18° NW 22:19:34 10° NNW
Cosmos 2237 Rocket 3.1 22:14:33 10° NNW 22:17:58 33° WNW 22:17:58 33° WNW
Cosmos 489 Rocket 4.3 22:19:38 10° NNW 22:25:48 79° WSW 22:31:59 10° S
YAOGAN 6 4.1 22:29:00 10° NE 22:30:39 19° E 22:30:39 19° E
Cosmos 2242 Rocket 3.8 22:37:10 48° WSW 22:37:46 52° W 22:42:11 10° N
DMSP B5D2-2 4.3 22:36:56 38° SW 22:38:12 46° W 22:43:11 10° NNW
CZ-4 R/B 4.3 22:34:38 10° NNE 22:39:24 62° ESE 22:43:51 12° S
DELTA 2 R/B (1) 3.7 22:37:49 32° W 22:40:01 50° SW 22:45:24 10° SSE
IRS-1D 4.0 22:38:03 10° NNE 22:43:17 61° ESE 22:48:26 10° S
Cosmos 1190 Rocket 4.0 22:41:41 34° SW 22:43:52 60° WNW 22:49:04 10° N
Cosmos 1939 Rocket 3.2 22:43:26 10° NNE 22:47:02 56° E 22:49:57 15° S
Delta 168 3.7 22:45:20 19° NW 22:47:11 36° NNE 22:50:45 10° E
Cosmos 2251 Rocket 4.2 22:49:15 30° WSW 22:50:35 34° WNW 22:55:20 10° N
Centaur Rocket 2.2 22:50:35 30° WNW 22:52:12 78° N 22:54:34 10° E
Cosmos 1954 Rocket 4.0 22:49:24 23° SSW 22:52:39 66° WNW 22:57:53 10° N
SL-08 RB Rocket 3.8 22:49:17 10° NNE 22:53:43 73° E 22:58:12 10° S
SL-16 R/B 2.8 22:49:44 10° S 22:55:27 41° WSW 23:01:11 10° NNW
SL-16 R/B 2.2 22:50:07 10° NNW 22:55:46 85° ENE 23:01:25 10° SSE
Cosmos 2221 Rocket 4.3 22:52:22 10° S 22:56:42 53° E 23:01:00 10° NNE
Cosmos 1782 Rocket 4.1 22:54:22 10° NNW 22:58:21 36° W 23:00:28 22° SW
ATLAS 2A CENTAUR R/B 4.2 22:54:45 21° W 22:59:02 52° SSW 23:24:35 10° SE
Cosmos 1025 Rocket 4.2 22:55:50 10° SSE 22:59:55 44° E 23:03:58 10° NNE
JB-3 4.1 22:56:38 10° S 23:00:32 84° WSW 23:04:23 10° NNW
Stardust Del rocket 4.1 22:58:40 25° W 23:01:13 80° NNW 23:09:08 10° ENE
In-Cosmos 22 Rocket 4.0 22:56:18 10° S 23:01:35 88° E 23:06:55 10° N
Cosmos 909 Rocket 4.1 22:55:18 10° NNW 23:02:25 89° ENE 23:08:40 10° SSE
Nadezhda 4 Rocket 4.0 22:57:44 10° SSW 23:03:43 58° W 23:09:41 10° N
Cosmos 2180 Rocket 4.5 22:57:51 10° N 23:04:08 87° W 23:10:18 10° S
ARGOS 3.3 22:59:03 10° N 23:04:15 54° WNW 23:09:07 12° SSW
H-2A R/B 3.6 23:04:00 10° NNW 23:07:33 18° WNW 23:09:05 16° W
USA 81 4.1 23:05:03 10° SSW 23:10:13 60° W 23:15:24 10° N
GPS 2-17 Rocket1 4.4 23:10:12 17° SW 23:11:01 18° SSW 23:13:56 10° SSE
Cosmos 2195 Rocket 4.5 23:05:58 10° S 23:12:15 83° W 23:18:29 10° N
GOES 2 Rocket 3.1 23:11:23 19° WSW 23:14:22 78° SSE 23:19:18 10° ENE
Cosmos 1484 Rocket 4.0 23:13:00 10° NNE 23:16:11 36° E 23:19:21 10° SSE
Cosmos 967 Rocket 4.5 23:10:19 10° NNW 23:16:41 81° WSW 23:23:05 10° SSE
ACS3 Solar Sail 4.0 23:16:03 10° NE 23:20:52 25° E 23:25:44 10° SSE
Milstar 3 4.1 23:19:15 10° WNW 23:26:26 36° N 23:32:29 10° ENE
SJ-11-01 4.2 23:25:33 10° N 23:30:10 87° WNW 23:34:47 10° SSW
Helios 1A Rocket 4.2 23:28:31 11° SW 23:30:11 15° W 23:32:13 10° WNW
USA 238 DEB 4.2 23:24:20 10° NW 23:32:02 53° WSW 23:39:55 10° S
ARIANE 5 R/B 3.8 23:28:35 10° WSW 23:32:05 15° SSW 23:34:35 10° SSE
USA 238 4.2 23:24:26 10° NW 23:32:09 54° WSW 23:40:03 10° S
Cosmos 968 Rocket 3.7 23:27:38 10° S 23:32:41 75° ESE 23:37:46 10° NNE
FUSE 4.1 23:30:32 10° WSW 23:35:52 73° NNW 23:41:14 10° ENE
Cosmos 1844 Rocket 4.0 23:32:20 10° WSW 23:36:31 22° WNW 23:40:44 10° NNW
Delta 198 4.4 23:30:21 10° WSW 23:36:47 89° SSE 23:42:57 10° ENE
Cosmos 1763 Rocket 3.5 23:31:39 10° NNW 23:36:50 89° WSW 23:41:56 10° SSE
SJ 16-02 1.9 23:36:09 10° SW 23:40:07 37° WNW 23:44:06 10° N
Cosmos 2026 Rocket 4.2 23:34:55 10° SSW 23:41:03 54° W 23:47:15 10° N
Hubble Space Telescope 3.1 23:41:20 10° NW 23:43:29 14° N 23:45:39 10° NNE
Cosmos 1606 3.7 23:42:07 10° NW 23:44:14 17° W 23:46:21 10° SW
Cosmos 1943 3.6 23:41:41 10° NNW 23:47:22 74° ENE 23:53:01 10° SSE
